Year,Month,Day,Hour,Minute,Value (Times are PST for windgust in km/hr)
2012,03,10,00,00,16.10
2012,03,10,00,01,11.30
2012,03,10,00,02,16.10
2012,03,10,00,03,17.70
2012,03,10,00,04,14.50
2012,03,10,00,05,14.50
2012,03,10,00,06,16.10
2012,03,10,00,07,11.30
2012,03,10,00,08,8.10
2012,03,10,00,09,9.60
2012,03,10,00,10,9.60
2012,03,10,00,11,4.80
2012,03,10,00,12,9.60
2012,03,10,00,13,6.40
2012,03,10,00,14,8.10
2012,03,10,00,15,8.10
2012,03,10,00,16,12.90
2012,03,10,00,17,16.10
2012,03,10,00,18,19.30
2012,03,10,00,19,9.60
2012,03,10,00,20,11.30
2012,03,10,00,21,9.60
2012,03,10,00,22,12.90
2012,03,10,00,23,4.80
2012,03,10,00,24,4.80
2012,03,10,00,25,9.60
2012,03,10,00,26,6.40
2012,03,10,00,27,12.90
2012,03,10,00,28,9.60
2012,03,10,00,29,4.80
2012,03,10,00,30,6.40
2012,03,10,00,31,11.30
2012,03,10,00,32,9.60
2012,03,10,00,33,14.50
2012,03,10,00,34,11.30
2012,03,10,00,35,16.10
2012,03,10,00,36,11.30
2012,03,10,00,37,11.30
2012,03,10,00,38,17.70
2012,03,10,00,39,11.30
2012,03,10,00,40,12.90
2012,03,10,00,41,11.30
2012,03,10,00,42,11.30
2012,03,10,00,43,14.50
2012,03,10,00,44,14.50
2012,03,10,00,45,16.10
2012,03,10,00,46,12.90
2012,03,10,00,47,11.30
2012,03,10,00,48,14.50
2012,03,10,00,49,6.40
2012,03,10,00,50,9.60
2012,03,10,00,51,14.50
2012,03,10,00,52,17.70
2012,03,10,00,53,9.60
2012,03,10,00,54,8.10
2012,03,10,00,55,6.40
2012,03,10,00,56,9.60
2012,03,10,00,57,9.60
2012,03,10,00,58,6.40
2012,03,10,00,59,6.40
2012,03,10,01,00,6.40
2012,03,10,01,01,3.20
2012,03,10,01,02,8.10
2012,03,10,01,03,3.20
2012,03,10,01,04,8.10
2012,03,10,01,05,1.60
2012,03,10,01,06,1.60
2012,03,10,01,07,4.80
2012,03,10,01,08,6.40
2012,03,10,01,09,3.20
2012,03,10,01,10,3.20
2012,03,10,01,12,4.80
2012,03,10,01,13,4.80
2012,03,10,01,14,4.80
2012,03,10,01,15,1.60
2012,03,10,01,16,1.60
2012,03,10,01,17,3.20
2012,03,10,01,18,3.20
2012,03,10,01,19,1.60
2012,03,10,01,20,1.60
2012,03,10,01,21,1.60
2012,03,10,01,22,1.60
2012,03,10,01,23,3.20
2012,03,10,01,24,4.80
2012,03,10,01,25,1.60
2012,03,10,01,26,1.60
2012,03,10,01,27,1.60
2012,03,10,01,28,1.60
2012,03,10,01,29,3.20
2012,03,10,01,30,3.20
2012,03,10,01,31,3.20
2012,03,10,01,32,3.20
2012,03,10,01,34,1.60
2012,03,10,01,35,1.60
2012,03,10,01,37,3.20
2012,03,10,01,38,3.20
2012,03,10,01,39,3.20
2012,03,10,01,40,3.20
2012,03,10,01,41,3.20
2012,03,10,01,42,3.20
2012,03,10,01,43,4.80
2012,03,10,01,44,4.80
2012,03,10,01,45,3.20
2012,03,10,01,46,3.20
2012,03,10,01,47,3.20
2012,03,10,01,48,3.20
2012,03,10,01,49,1.60
2012,03,10,01,51,1.60
2012,03,10,01,52,1.60
2012,03,10,01,53,1.60
2012,03,10,02,00,1.60
2012,03,10,02,01,1.60
2012,03,10,02,02,1.60
2012,03,10,02,03,3.20
2012,03,10,02,06,1.60
2012,03,10,02,07,1.60
2012,03,10,02,09,1.60
2012,03,10,02,12,1.60
2012,03,10,02,13,3.20
2012,03,10,02,14,4.80
2012,03,10,02,15,3.20
2012,03,10,02,16,3.20
2012,03,10,02,17,1.60
2012,03,10,02,18,1.60
2012,03,10,02,19,3.20
2012,03,10,02,20,3.20
2012,03,10,02,21,4.80
2012,03,10,02,22,4.80
2012,03,10,02,23,3.20
2012,03,10,02,24,3.20
2012,03,10,02,25,3.20
2012,03,10,02,26,3.20
2012,03,10,02,27,3.20
2012,03,10,02,28,1.60
2012,03,10,02,29,3.20
2012,03,10,02,30,3.20
2012,03,10,02,31,4.80
2012,03,10,02,32,1.60
2012,03,10,02,33,1.60
2012,03,10,02,34,1.60
2012,03,10,02,35,1.60
2012,03,10,02,36,1.60
2012,03,10,02,40,3.20
2012,03,10,02,41,3.20
2012,03,10,02,42,3.20
2012,03,10,02,43,1.60
2012,03,10,02,44,1.60
2012,03,10,02,45,1.60
2012,03,10,02,46,1.60
2012,03,10,02,47,3.20
2012,03,10,02,48,4.80
2012,03,10,02,49,3.20
2012,03,10,02,50,3.20
2012,03,10,02,51,3.20
2012,03,10,02,52,4.80
2012,03,10,02,53,4.80
2012,03,10,02,54,3.20
2012,03,10,02,55,1.60
2012,03,10,02,56,1.60
2012,03,10,02,57,1.60
2012,03,10,02,59,1.60
2012,03,10,03,00,3.20
2012,03,10,03,01,3.20
2012,03,10,03,02,3.20
2012,03,10,03,03,4.80
2012,03,10,03,04,4.80
2012,03,10,03,05,3.20
2012,03,10,03,06,3.20
2012,03,10,03,07,3.20
2012,03,10,03,08,3.20
2012,03,10,03,09,1.60
2012,03,10,03,10,3.20
2012,03,10,03,11,6.40
2012,03,10,03,12,6.40
2012,03,10,03,13,6.40
2012,03,10,03,14,6.40
2012,03,10,03,15,6.40
2012,03,10,03,16,6.40
2012,03,10,03,17,4.80
2012,03,10,03,18,4.80
2012,03,10,03,19,4.80
2012,03,10,03,20,4.80
2012,03,10,03,21,4.80
2012,03,10,03,22,3.20
2012,03,10,03,23,3.20
2012,03,10,03,24,4.80
2012,03,10,03,25,4.80
2012,03,10,03,26,6.40
2012,03,10,03,27,6.40
2012,03,10,03,28,6.40
2012,03,10,03,29,6.40
2012,03,10,03,30,6.40
2012,03,10,03,31,6.40
2012,03,10,03,32,6.40
2012,03,10,03,33,6.40
2012,03,10,03,34,6.40
2012,03,10,03,35,4.80
2012,03,10,03,36,4.80
2012,03,10,03,37,6.40
2012,03,10,03,38,8.10
2012,03,10,03,39,8.10
2012,03,10,03,40,8.10
2012,03,10,03,41,3.20
2012,03,10,03,42,8.10
2012,03,10,03,43,11.30
2012,03,10,03,44,9.60
2012,03,10,03,45,9.60
2012,03,10,03,46,12.90
2012,03,10,03,47,14.50
2012,03,10,03,48,8.10
2012,03,10,03,49,8.10
2012,03,10,03,50,9.60
2012,03,10,03,51,8.10
2012,03,10,03,52,8.10
2012,03,10,03,53,8.10
2012,03,10,03,54,9.60
2012,03,10,03,55,9.60
2012,03,10,03,56,8.10
2012,03,10,03,57,8.10
2012,03,10,03,58,11.30
2012,03,10,03,59,8.10
2012,03,10,04,00,8.10
2012,03,10,04,01,8.10
2012,03,10,04,02,6.40
2012,03,10,04,03,8.10
2012,03,10,04,04,6.40
2012,03,10,04,05,8.10
2012,03,10,04,06,8.10
2012,03,10,04,07,6.40
2012,03,10,04,08,6.40
2012,03,10,04,09,6.40
2012,03,10,04,10,4.80
2012,03,10,04,11,6.40
2012,03,10,04,12,4.80
2012,03,10,04,13,6.40
2012,03,10,04,14,6.40
2012,03,10,04,15,8.10
2012,03,10,04,16,6.40
2012,03,10,04,17,6.40
2012,03,10,04,18,3.20
2012,03,10,04,19,3.20
2012,03,10,04,20,4.80
2012,03,10,04,21,3.20
2012,03,10,04,22,8.10
2012,03,10,04,23,8.10
2012,03,10,04,24,8.10
2012,03,10,04,25,8.10
2012,03,10,04,26,8.10
2012,03,10,04,27,6.40
2012,03,10,04,28,4.80
2012,03,10,04,29,3.20
2012,03,10,04,30,3.20
2012,03,10,04,31,4.80
2012,03,10,04,32,3.20
2012,03,10,04,33,4.80
2012,03,10,04,34,3.20
2012,03,10,04,35,3.20
2012,03,10,04,36,8.10
2012,03,10,04,37,8.10
2012,03,10,04,38,9.60
2012,03,10,04,39,11.30
2012,03,10,04,40,8.10
2012,03,10,04,41,9.60
2012,03,10,04,42,11.30
2012,03,10,04,43,12.90
2012,03,10,04,44,16.10
2012,03,10,04,45,14.50
2012,03,10,04,46,11.30
2012,03,10,04,47,11.30
2012,03,10,04,48,6.40
2012,03,10,04,49,4.80
2012,03,10,04,50,3.20
2012,03,10,04,51,1.60
2012,03,10,04,52,4.80
2012,03,10,04,53,3.20
2012,03,10,04,54,3.20
2012,03,10,04,55,3.20
2012,03,10,04,56,3.20
2012,03,10,04,57,1.60
2012,03,10,04,58,1.60
2012,03,10,04,59,3.20
2012,03,10,05,00,3.20
2012,03,10,05,01,1.60
2012,03,10,05,02,3.20
2012,03,10,05,03,3.20
2012,03,10,05,04,3.20
2012,03,10,05,05,1.60
2012,03,10,05,06,1.60
2012,03,10,05,07,1.60
2012,03,10,05,08,3.20
2012,03,10,05,09,1.60
2012,03,10,05,10,3.20
2012,03,10,05,11,1.60
2012,03,10,05,12,1.60
2012,03,10,05,15,1.60
2012,03,10,05,16,1.60
2012,03,10,05,17,3.20
2012,03,10,05,18,1.60
2012,03,10,05,19,1.60
2012,03,10,05,22,3.20
2012,03,10,05,23,4.80
2012,03,10,05,24,6.40
2012,03,10,05,25,6.40
2012,03,10,05,26,6.40
2012,03,10,05,27,6.40
2012,03,10,05,28,6.40
2012,03,10,05,29,6.40
2012,03,10,05,30,6.40
2012,03,10,05,31,6.40
2012,03,10,05,32,6.40
2012,03,10,05,33,8.10
2012,03,10,05,34,6.40
2012,03,10,05,35,6.40
2012,03,10,05,36,6.40
2012,03,10,05,37,8.10
2012,03,10,05,38,4.80
2012,03,10,05,39,1.60
2012,03,10,05,40,3.20
2012,03,10,05,41,1.60
2012,03,10,05,42,1.60
2012,03,10,05,43,1.60
2012,03,10,05,44,1.60
2012,03,10,05,45,3.20
2012,03,10,05,46,3.20
2012,03,10,05,47,3.20
2012,03,10,05,48,1.60
2012,03,10,05,57,1.60
2012,03,10,05,58,1.60
2012,03,10,05,59,3.20
2012,03,10,06,03,3.20
2012,03,10,06,04,1.60
2012,03,10,06,05,1.60
2012,03,10,06,08,3.20
2012,03,10,06,09,4.80
2012,03,10,06,10,3.20
2012,03,10,06,11,3.20
2012,03,10,06,12,3.20
2012,03,10,06,13,3.20
2012,03,10,06,14,3.20
2012,03,10,06,15,3.20
2012,03,10,06,16,4.80
2012,03,10,06,17,3.20
2012,03,10,06,18,3.20
2012,03,10,06,19,3.20
2012,03,10,06,20,1.60
2012,03,10,06,21,1.60
2012,03,10,06,35,3.20
2012,03,10,06,36,1.60
2012,03,10,06,39,3.20
2012,03,10,06,40,3.20
2012,03,10,06,41,3.20
2012,03,10,06,42,1.60
2012,03,10,06,43,1.60
2012,03,10,06,47,3.20
2012,03,10,06,48,1.60
2012,03,10,06,51,1.60
2012,03,10,06,52,3.20
2012,03,10,06,53,3.20
2012,03,10,06,54,1.60
2012,03,10,06,55,1.60
2012,03,10,07,07,1.60
2012,03,10,07,08,1.60
2012,03,10,07,09,1.60
2012,03,10,07,10,1.60
2012,03,10,07,17,1.60
2012,03,10,07,18,3.20
2012,03,10,07,19,3.20
2012,03,10,07,20,3.20
2012,03,10,07,21,3.20
2012,03,10,07,22,4.80
2012,03,10,07,23,4.80
2012,03,10,07,24,3.20
2012,03,10,07,25,1.60
2012,03,10,07,26,1.60
2012,03,10,07,29,1.60
2012,03,10,07,30,1.60
2012,03,10,07,31,3.20
2012,03,10,07,32,3.20
2012,03,10,07,33,3.20
2012,03,10,07,34,3.20
2012,03,10,07,35,3.20
2012,03,10,07,36,3.20
2012,03,10,07,37,1.60
2012,03,10,07,38,1.60
2012,03,10,07,41,1.60
2012,03,10,07,42,1.60
2012,03,10,07,46,1.60
2012,03,10,07,47,1.60
2012,03,10,07,48,1.60
2012,03,10,07,49,1.60
2012,03,10,07,50,3.20
2012,03,10,07,51,1.60
2012,03,10,07,52,1.60
2012,03,10,07,53,1.60
2012,03,10,07,54,1.60
2012,03,10,07,56,1.60
2012,03,10,07,57,3.20
2012,03,10,07,58,3.20
2012,03,10,08,00,1.60
2012,03,10,08,01,3.20
2012,03,10,08,02,1.60
2012,03,10,08,03,1.60
2012,03,10,08,05,3.20
2012,03,10,08,06,3.20
2012,03,10,08,07,3.20
2012,03,10,08,08,1.60
2012,03,10,08,09,3.20
2012,03,10,08,10,4.80
2012,03,10,08,11,4.80
2012,03,10,08,12,3.20
2012,03,10,08,13,4.80
2012,03,10,08,14,3.20
2012,03,10,08,15,1.60
2012,03,10,08,16,1.60
2012,03,10,08,17,1.60
2012,03,10,08,21,1.60
2012,03,10,08,22,1.60
2012,03,10,08,23,1.60
2012,03,10,08,24,1.60
2012,03,10,08,25,4.80
2012,03,10,08,26,4.80
2012,03,10,08,27,3.20
2012,03,10,08,28,1.60
2012,03,10,08,29,6.40
2012,03,10,08,30,3.20
2012,03,10,08,31,1.60
2012,03,10,08,33,1.60
2012,03,10,08,34,1.60
2012,03,10,08,35,1.60
2012,03,10,08,36,1.60
2012,03,10,08,38,1.60
2012,03,10,08,39,3.20
2012,03,10,08,40,1.60
2012,03,10,08,42,3.20
2012,03,10,08,43,3.20
2012,03,10,08,44,1.60
2012,03,10,08,45,3.20
2012,03,10,08,46,4.80
2012,03,10,08,47,3.20
2012,03,10,08,48,3.20
2012,03,10,08,49,3.20
2012,03,10,08,50,3.20
2012,03,10,08,51,3.20
2012,03,10,08,52,3.20
2012,03,10,08,53,1.60
2012,03,10,08,54,1.60
2012,03,10,08,55,4.80
2012,03,10,08,56,3.20
2012,03,10,08,57,3.20
2012,03,10,08,58,1.60
2012,03,10,08,59,1.60
2012,03,10,09,00,1.60
2012,03,10,09,01,3.20
2012,03,10,09,02,3.20
2012,03,10,09,03,1.60
2012,03,10,09,04,3.20
2012,03,10,09,05,1.60
2012,03,10,09,06,1.60
2012,03,10,09,07,4.80
2012,03,10,09,08,3.20
2012,03,10,09,09,3.20
2012,03,10,09,10,1.60
2012,03,10,09,11,1.60
2012,03,10,09,12,3.20
2012,03,10,09,13,3.20
2012,03,10,09,14,1.60
2012,03,10,09,15,1.60
2012,03,10,09,16,1.60
2012,03,10,09,17,1.60
2012,03,10,09,18,1.60
2012,03,10,09,19,1.60
2012,03,10,09,20,1.60
2012,03,10,09,21,1.60
2012,03,10,09,22,3.20
2012,03,10,09,23,1.60
2012,03,10,09,24,3.20
2012,03,10,09,25,1.60
2012,03,10,09,26,1.60
2012,03,10,09,27,3.20
2012,03,10,09,28,4.80
2012,03,10,09,29,1.60
2012,03,10,09,30,3.20
2012,03,10,09,31,3.20
2012,03,10,09,32,4.80
2012,03,10,09,33,6.40
2012,03,10,09,34,9.60
2012,03,10,09,35,6.40
2012,03,10,09,36,1.60
2012,03,10,09,37,9.60
2012,03,10,09,38,9.60
2012,03,10,09,39,4.80
2012,03,10,09,40,4.80
2012,03,10,09,41,9.60
2012,03,10,09,42,9.60
2012,03,10,09,43,8.10
2012,03,10,09,44,6.40
2012,03,10,09,45,6.40
2012,03,10,09,46,8.10
2012,03,10,09,47,8.10
2012,03,10,09,48,17.70
2012,03,10,09,49,12.90
2012,03,10,09,50,11.30
2012,03,10,09,51,6.40
2012,03,10,09,52,8.10
2012,03,10,09,53,14.50
2012,03,10,09,54,11.30
2012,03,10,09,55,6.40
2012,03,10,09,56,3.20
2012,03,10,09,57,4.80
2012,03,10,09,58,6.40
2012,03,10,09,59,4.80
2012,03,10,10,00,6.40
2012,03,10,10,01,9.60
2012,03,10,10,02,9.60
2012,03,10,10,03,6.40
2012,03,10,10,04,14.50
2012,03,10,10,05,8.10
2012,03,10,10,06,6.40
2012,03,10,10,07,16.10
2012,03,10,10,08,6.40
2012,03,10,10,09,8.10
2012,03,10,10,10,9.60
2012,03,10,10,11,9.60
2012,03,10,10,12,8.10
2012,03,10,10,13,9.60
2012,03,10,10,14,4.80
2012,03,10,10,15,4.80
2012,03,10,10,16,9.60
2012,03,10,10,17,11.30
2012,03,10,10,18,12.90
2012,03,10,10,19,9.60
2012,03,10,10,20,6.40
2012,03,10,10,21,8.10
2012,03,10,10,22,14.50
2012,03,10,10,23,12.90
2012,03,10,10,24,16.10
2012,03,10,10,25,16.10
2012,03,10,10,26,20.90
2012,03,10,10,27,19.30
2012,03,10,10,28,20.90
2012,03,10,10,29,22.50
2012,03,10,10,30,14.50
2012,03,10,10,31,9.60
2012,03,10,10,32,11.30
2012,03,10,10,33,11.30
2012,03,10,10,34,9.60
2012,03,10,10,35,20.90
2012,03,10,10,36,17.70
2012,03,10,10,37,11.30
2012,03,10,10,38,19.30
2012,03,10,10,39,16.10
2012,03,10,10,40,17.70
2012,03,10,10,41,4.80
2012,03,10,10,42,11.30
2012,03,10,10,43,11.30
2012,03,10,10,44,11.30
2012,03,10,10,45,9.60
2012,03,10,10,46,24.20
2012,03,10,10,47,24.20
2012,03,10,10,48,19.30
2012,03,10,10,49,14.50
2012,03,10,10,50,11.30
2012,03,10,10,51,8.10
2012,03,10,10,52,8.10
2012,03,10,10,53,11.30
2012,03,10,10,54,11.30
2012,03,10,10,55,9.60
2012,03,10,10,56,8.10
2012,03,10,10,57,19.30
2012,03,10,10,58,22.50
2012,03,10,10,59,25.70
2012,03,10,11,00,20.90
2012,03,10,11,01,17.70
2012,03,10,11,02,8.10
2012,03,10,11,03,16.10
2012,03,10,11,04,19.30
2012,03,10,11,05,22.50
2012,03,10,11,06,19.30
2012,03,10,11,07,11.30
2012,03,10,11,08,12.90
2012,03,10,11,09,12.90
2012,03,10,11,10,11.30
2012,03,10,11,11,9.60
2012,03,10,11,12,6.40
2012,03,10,11,13,14.50
2012,03,10,11,14,17.70
2012,03,10,11,15,14.50
2012,03,10,11,16,14.50
2012,03,10,11,17,16.10
2012,03,10,11,18,25.70
2012,03,10,11,19,29.00
2012,03,10,11,20,17.70
2012,03,10,11,21,19.30
2012,03,10,11,22,20.90
2012,03,10,11,23,19.30
2012,03,10,11,24,20.90
2012,03,10,11,25,14.50
2012,03,10,11,26,14.50
2012,03,10,11,27,11.30
2012,03,10,11,28,9.60
2012,03,10,11,29,19.30
2012,03,10,11,30,16.10
2012,03,10,11,31,20.90
2012,03,10,11,32,9.60
2012,03,10,11,33,4.80
2012,03,10,11,34,6.40
2012,03,10,11,35,12.90
2012,03,10,11,36,9.60
2012,03,10,11,37,11.30
2012,03,10,11,38,6.40
2012,03,10,11,39,6.40
2012,03,10,11,40,4.80
2012,03,10,11,41,6.40
2012,03,10,11,42,20.90
2012,03,10,11,43,14.50
2012,03,10,11,44,8.10
2012,03,10,11,45,9.60
2012,03,10,11,46,12.90
2012,03,10,11,47,16.10
2012,03,10,11,48,17.70
2012,03,10,11,49,11.30
2012,03,10,11,50,16.10
2012,03,10,11,51,9.60
2012,03,10,11,52,16.10
2012,03,10,11,53,14.50
2012,03,10,11,54,16.10
2012,03,10,11,55,22.50
2012,03,10,11,56,20.90
2012,03,10,11,57,19.30
2012,03,10,11,58,9.60
2012,03,10,11,59,4.80
2012,03,10,12,00,11.30
2012,03,10,12,01,17.70
2012,03,10,12,02,9.60
2012,03,10,12,03,12.90
2012,03,10,12,04,19.30
2012,03,10,12,05,17.70
2012,03,10,12,06,11.30
2012,03,10,12,07,4.80
2012,03,10,12,08,8.10
2012,03,10,12,09,4.80
2012,03,10,12,10,8.10
2012,03,10,12,11,11.30
2012,03,10,12,12,11.30
2012,03,10,12,13,9.60
2012,03,10,12,14,6.40
2012,03,10,12,15,3.20
2012,03,10,12,16,3.20
2012,03,10,12,17,16.10
2012,03,10,12,18,11.30
2012,03,10,12,19,6.40
2012,03,10,12,20,11.30
2012,03,10,12,21,11.30
2012,03,10,12,22,17.70
2012,03,10,12,23,12.90
2012,03,10,12,24,4.80
2012,03,10,12,25,4.80
2012,03,10,12,26,8.10
2012,03,10,12,27,8.10
2012,03,10,12,28,6.40
2012,03,10,12,29,6.40
2012,03,10,12,30,4.80
2012,03,10,12,31,6.40
2012,03,10,12,32,8.10
2012,03,10,12,33,12.90
2012,03,10,12,34,6.40
2012,03,10,12,35,14.50
2012,03,10,12,36,11.30
2012,03,10,12,37,11.30
2012,03,10,12,38,19.30
2012,03,10,12,39,27.40
2012,03,10,12,40,25.70
2012,03,10,12,41,19.30
2012,03,10,12,42,11.30
2012,03,10,12,43,9.60
2012,03,10,12,44,8.10
2012,03,10,12,45,16.10
2012,03,10,12,46,8.10
2012,03,10,12,47,11.30
2012,03,10,12,48,12.90
2012,03,10,12,49,16.10
2012,03,10,12,50,16.10
2012,03,10,12,51,12.90
2012,03,10,12,52,16.10
2012,03,10,12,53,16.10
2012,03,10,12,54,9.60
2012,03,10,12,55,12.90
2012,03,10,12,56,16.10
2012,03,10,12,57,8.10
2012,03,10,12,58,9.60
2012,03,10,12,59,4.80
2012,03,10,13,00,6.40
2012,03,10,13,01,6.40
2012,03,10,13,02,14.50
2012,03,10,13,03,24.20
2012,03,10,13,04,24.20
2012,03,10,13,05,14.50
2012,03,10,13,06,4.80
2012,03,10,13,07,6.40
2012,03,10,13,08,4.80
2012,03,10,13,09,4.80
2012,03,10,13,10,11.30
2012,03,10,13,11,4.80
2012,03,10,13,12,8.10
2012,03,10,13,13,6.40
2012,03,10,13,14,6.40
2012,03,10,13,15,16.10
2012,03,10,13,16,6.40
2012,03,10,13,17,11.30
2012,03,10,13,18,16.10
2012,03,10,13,19,8.10
2012,03,10,13,20,14.50
2012,03,10,13,21,4.80
2012,03,10,13,22,3.20
2012,03,10,13,23,4.80
2012,03,10,13,24,6.40
2012,03,10,13,25,6.40
2012,03,10,13,26,3.20
2012,03,10,13,27,4.80
2012,03,10,13,28,3.20
2012,03,10,13,29,9.60
2012,03,10,13,30,9.60
2012,03,10,13,31,20.90
2012,03,10,13,32,17.70
2012,03,10,13,33,11.30
2012,03,10,13,34,8.10
2012,03,10,13,35,6.40
2012,03,10,13,36,6.40
2012,03,10,13,37,4.80
2012,03,10,13,38,8.10
2012,03,10,13,39,9.60
2012,03,10,13,40,19.30
2012,03,10,13,41,14.50
2012,03,10,13,42,16.10
2012,03,10,13,43,9.60
2012,03,10,13,44,6.40
2012,03,10,13,45,9.60
2012,03,10,13,46,8.10
2012,03,10,13,47,8.10
2012,03,10,13,48,14.50
2012,03,10,13,49,14.50
2012,03,10,13,50,12.90
2012,03,10,13,51,6.40
2012,03,10,13,52,6.40
2012,03,10,13,53,14.50
2012,03,10,13,54,8.10
2012,03,10,13,55,11.30
2012,03,10,13,56,4.80
2012,03,10,13,57,4.80
2012,03,10,13,58,11.30
2012,03,10,13,59,11.30
2012,03,10,14,00,6.40
2012,03,10,14,01,11.30
2012,03,10,14,02,4.80
2012,03,10,14,03,4.80
2012,03,10,14,04,9.60
2012,03,10,14,05,11.30
2012,03,10,14,06,9.60
2012,03,10,14,07,4.80
2012,03,10,14,08,11.30
2012,03,10,14,09,9.60
2012,03,10,14,10,8.10
2012,03,10,14,11,6.40
2012,03,10,14,12,9.60
2012,03,10,14,13,6.40
2012,03,10,14,14,4.80
2012,03,10,14,15,4.80
2012,03,10,14,16,11.30
2012,03,10,14,17,11.30
2012,03,10,14,18,9.60
2012,03,10,14,19,11.30
2012,03,10,14,20,11.30
2012,03,10,14,21,8.10
2012,03,10,14,22,6.40
2012,03,10,14,23,17.70
2012,03,10,14,24,9.60
2012,03,10,14,25,8.10
2012,03,10,14,26,3.20
2012,03,10,14,27,6.40
2012,03,10,14,28,12.90
2012,03,10,14,29,8.10
2012,03,10,14,30,14.50
2012,03,10,14,31,12.90
2012,03,10,14,32,16.10
2012,03,10,14,33,11.30
2012,03,10,14,34,9.60
2012,03,10,14,35,16.10
2012,03,10,14,36,11.30
2012,03,10,14,37,6.40
2012,03,10,14,38,6.40
2012,03,10,14,39,4.80
2012,03,10,14,40,16.10
2012,03,10,14,41,11.30
2012,03,10,14,42,9.60
2012,03,10,14,43,8.10
2012,03,10,14,44,6.40
2012,03,10,14,45,6.40
2012,03,10,14,46,4.80
2012,03,10,14,47,8.10
2012,03,10,14,48,16.10
2012,03,10,14,49,8.10
2012,03,10,14,50,8.10
2012,03,10,14,51,4.80
2012,03,10,14,52,19.30
2012,03,10,14,53,11.30
2012,03,10,14,54,16.10
2012,03,10,14,55,9.60
2012,03,10,14,56,4.80
2012,03,10,14,57,6.40
2012,03,10,14,58,6.40
2012,03,10,14,59,6.40
2012,03,10,15,00,3.20
2012,03,10,15,01,1.60
2012,03,10,15,02,3.20
2012,03,10,15,03,1.60
2012,03,10,15,04,4.80
2012,03,10,15,05,8.10
2012,03,10,15,06,6.40
2012,03,10,15,07,8.10
2012,03,10,15,08,9.60
2012,03,10,15,09,8.10
2012,03,10,15,10,4.80
2012,03,10,15,11,8.10
2012,03,10,15,12,4.80
2012,03,10,15,13,6.40
2012,03,10,15,14,6.40
2012,03,10,15,15,8.10
2012,03,10,15,16,4.80
2012,03,10,15,17,8.10
2012,03,10,15,18,9.60
2012,03,10,15,19,8.10
2012,03,10,15,20,8.10
2012,03,10,15,21,4.80
2012,03,10,15,22,8.10
2012,03,10,15,23,9.60
2012,03,10,15,24,9.60
2012,03,10,15,25,9.60
2012,03,10,15,26,9.60
2012,03,10,15,27,8.10
2012,03,10,15,28,14.50
2012,03,10,15,29,16.10
2012,03,10,15,30,6.40
2012,03,10,15,31,14.50
2012,03,10,15,32,14.50
2012,03,10,15,33,11.30
2012,03,10,15,34,4.80
2012,03,10,15,35,8.10
2012,03,10,15,36,20.90
2012,03,10,15,37,8.10
2012,03,10,15,38,6.40
2012,03,10,15,39,6.40
2012,03,10,15,40,20.90
2012,03,10,15,41,9.60
2012,03,10,15,42,9.60
2012,03,10,15,43,4.80
2012,03,10,15,44,6.40
2012,03,10,15,45,8.10
2012,03,10,15,46,9.60
2012,03,10,15,47,11.30
2012,03,10,15,48,9.60
2012,03,10,15,49,6.40
2012,03,10,15,50,4.80
2012,03,10,15,51,6.40
2012,03,10,15,52,8.10
2012,03,10,15,53,17.70
2012,03,10,15,54,9.60
2012,03,10,15,55,6.40
2012,03,10,15,56,12.90
2012,03,10,15,57,6.40
2012,03,10,15,58,3.20
2012,03,10,15,59,3.20
2012,03,10,16,00,9.60
2012,03,10,16,01,9.60
2012,03,10,16,02,6.40
2012,03,10,16,03,3.20
2012,03,10,16,04,3.20
2012,03,10,16,05,3.20
2012,03,10,16,06,4.80
2012,03,10,16,07,4.80
2012,03,10,16,08,6.40
2012,03,10,16,09,6.40
2012,03,10,16,10,8.10
2012,03,10,16,11,8.10
2012,03,10,16,12,8.10
2012,03,10,16,13,19.30
2012,03,10,16,14,9.60
2012,03,10,16,15,1.60
2012,03,10,16,16,19.30
2012,03,10,16,17,8.10
2012,03,10,16,18,14.50
2012,03,10,16,19,11.30
2012,03,10,16,20,3.20
2012,03,10,16,21,9.60
2012,03,10,16,22,6.40
2012,03,10,16,23,9.60
2012,03,10,16,24,11.30
2012,03,10,16,25,16.10
2012,03,10,16,26,4.80
2012,03,10,16,27,4.80
2012,03,10,16,28,4.80
2012,03,10,16,29,3.20
2012,03,10,16,30,8.10
2012,03,10,16,31,9.60
2012,03,10,16,32,14.50
2012,03,10,16,33,6.40
2012,03,10,16,34,9.60
2012,03,10,16,35,4.80
2012,03,10,16,36,11.30
2012,03,10,16,37,16.10
2012,03,10,16,38,9.60
2012,03,10,16,39,19.30
2012,03,10,16,40,16.10
2012,03,10,16,41,8.10
2012,03,10,16,42,11.30
2012,03,10,16,43,16.10
2012,03,10,16,44,16.10
2012,03,10,16,45,8.10
2012,03,10,16,46,11.30
2012,03,10,16,47,8.10
2012,03,10,16,48,9.60
2012,03,10,16,49,9.60
2012,03,10,16,50,11.30
2012,03,10,16,51,16.10
2012,03,10,16,52,8.10
2012,03,10,16,53,9.60
2012,03,10,16,54,11.30
2012,03,10,16,55,8.10
2012,03,10,16,56,16.10
2012,03,10,16,57,9.60
2012,03,10,16,58,8.10
2012,03,10,16,59,6.40
2012,03,10,17,00,3.20
2012,03,10,17,01,16.10
2012,03,10,17,02,8.10
2012,03,10,17,03,19.30
2012,03,10,17,04,19.30
2012,03,10,17,05,14.50
2012,03,10,17,06,11.30
2012,03,10,17,07,29.00
2012,03,10,17,08,9.60
2012,03,10,17,09,16.10
2012,03,10,17,10,8.10
2012,03,10,17,11,8.10
2012,03,10,17,12,22.50
2012,03,10,17,13,8.10
2012,03,10,17,14,11.30
2012,03,10,17,15,14.50
2012,03,10,17,16,8.10
2012,03,10,17,17,6.40
2012,03,10,17,18,9.60
2012,03,10,17,19,6.40
2012,03,10,17,20,8.10
2012,03,10,17,21,8.10
2012,03,10,17,22,8.10
2012,03,10,17,23,9.60
2012,03,10,17,24,9.60
2012,03,10,17,25,11.30
2012,03,10,17,26,11.30
2012,03,10,17,27,8.10
2012,03,10,17,28,4.80
2012,03,10,17,29,3.20
2012,03,10,17,30,8.10
2012,03,10,17,31,4.80
2012,03,10,17,32,6.40
2012,03,10,17,33,3.20
2012,03,10,17,34,8.10
2012,03,10,17,35,4.80
2012,03,10,17,36,4.80
2012,03,10,17,37,17.70
2012,03,10,17,38,12.90
2012,03,10,17,39,16.10
2012,03,10,17,40,8.10
2012,03,10,17,41,16.10
2012,03,10,17,42,9.60
2012,03,10,17,43,9.60
2012,03,10,17,44,19.30
2012,03,10,17,45,6.40
2012,03,10,17,46,9.60
2012,03,10,17,47,4.80
2012,03,10,17,48,9.60
2012,03,10,17,49,11.30
2012,03,10,17,50,4.80
2012,03,10,17,51,6.40
2012,03,10,17,52,8.10
2012,03,10,17,53,8.10
2012,03,10,17,54,9.60
2012,03,10,17,55,16.10
2012,03,10,17,56,9.60
2012,03,10,17,57,17.70
2012,03,10,17,58,9.60
2012,03,10,17,59,6.40
2012,03,10,18,00,8.10
2012,03,10,18,01,11.30
2012,03,10,18,02,16.10
2012,03,10,18,03,4.80
2012,03,10,18,04,11.30
2012,03,10,18,05,11.30
2012,03,10,18,06,12.90
2012,03,10,18,07,6.40
2012,03,10,18,08,16.10
2012,03,10,18,09,12.90
2012,03,10,18,10,9.60
2012,03,10,18,11,4.80
2012,03,10,18,12,4.80
2012,03,10,18,13,8.10
2012,03,10,18,14,6.40
2012,03,10,18,15,4.80
2012,03,10,18,16,3.20
2012,03,10,18,17,9.60
2012,03,10,18,18,11.30
2012,03,10,18,19,8.10
2012,03,10,18,20,8.10
2012,03,10,18,21,8.10
2012,03,10,18,22,16.10
2012,03,10,18,23,16.10
2012,03,10,18,24,6.40
2012,03,10,18,25,6.40
2012,03,10,18,26,16.10
2012,03,10,18,27,11.30
2012,03,10,18,28,8.10
2012,03,10,18,29,8.10
2012,03,10,18,30,14.50
2012,03,10,18,31,11.30
2012,03,10,18,32,19.30
2012,03,10,18,33,17.70
2012,03,10,18,34,4.80
2012,03,10,18,35,11.30
2012,03,10,18,36,8.10
2012,03,10,18,37,19.30
2012,03,10,18,38,16.10
2012,03,10,18,39,8.10
2012,03,10,18,40,9.60
2012,03,10,18,41,9.60
2012,03,10,18,42,9.60
2012,03,10,18,43,6.40
2012,03,10,18,44,19.30
2012,03,10,18,45,9.60
2012,03,10,18,46,6.40
2012,03,10,18,47,6.40
2012,03,10,18,48,9.60
2012,03,10,18,49,11.30
2012,03,10,18,50,11.30
2012,03,10,18,51,16.10
2012,03,10,18,52,17.70
2012,03,10,18,53,9.60
2012,03,10,18,54,4.80
2012,03,10,18,55,14.50
2012,03,10,18,56,9.60
2012,03,10,18,57,14.50
2012,03,10,18,58,12.90
2012,03,10,18,59,11.30
2012,03,10,19,00,9.60
2012,03,10,19,01,12.90
2012,03,10,19,02,16.10
2012,03,10,19,03,3.20
2012,03,10,19,04,11.30
2012,03,10,19,05,11.30
2012,03,10,19,06,25.70
2012,03,10,19,07,8.10
2012,03,10,19,08,14.50
2012,03,10,19,09,6.40
2012,03,10,19,10,4.80
2012,03,10,19,11,6.40
2012,03,10,19,12,6.40
2012,03,10,19,13,14.50
2012,03,10,19,14,4.80
2012,03,10,19,15,8.10
2012,03,10,19,16,6.40
2012,03,10,19,17,14.50
2012,03,10,19,18,8.10
2012,03,10,19,19,19.30
2012,03,10,19,20,4.80
2012,03,10,19,21,8.10
2012,03,10,19,22,8.10